Weather History for KMOT - June, 2014

Change the Weather History Date:

Tuesday, June 10, 2014

  Actual Average Record
Temperature  
Mean Temperature 66 °F 62 °F  
Max Temperature 76 °F 74 °F 102 °F (1918)
Min Temperature 56 °F 51 °F 36 °F (1922)
Cooling Degree Days 1 2  
Month to date cooling degree days 3 16  
Year to date cooling degree days 44 32  
Since 1 June cooling degree days 3 16  
Growing Degree Days 15 (Base 50)    
Moisture  
Dew Point 44 °F    
Average Humidity 49    
Maximum Humidity 72    
Minimum Humidity 25    
Precipitation  
Precipitation 0.02 in 0.12 in 1.32 in (2004)
Month to date precipitation 1.46 1.19  
Year to date precipitation 5.27 6.58  
Sea Level Pressure  
Sea Level Pressure 29.80 in    
Wind  
Wind Speed 8 mph (WNW)    
Max Wind Speed 26 mph    
Max Gust Speed 35 mph    
Visibility 10 miles    
Events Rain    
T = Trace of Precipitation, MM = Missing Value Source: NWS Daily Summary

Daily Weather History Graph

Daily Weather History Graph

Search for Another Location

Airport or City:

Trip Planner

Search our weather history database for the weather conditions in past years. The results will help you decide how hot, cold, wet, or windy it might be!

Date:

Astronomy

Jun. 10, 2014 Rise Set
Actual Time 5:44 AM CDT 9:44 PM CDT
Civil Twilight 5:03 AM CDT 10:26 PM CDT
Nautical Twilight 4:06 AM CDT 11:23 PM CDT
Astronomical Twilight 2:30 AM CDT 1:01 AM CDT
Moon 7:01 PM CDT (6/10) 4:05 AM CDT (6/10)
Length of Visible Light 17h 22m
Length of Day
16h 00m
Waxing Gibbous, 92% of the Moon is Illuminated
Jun 10
Waxing Gibbous
Jun 12
Full
Jun 19
Last Quarter
Jun 27
New
Jul 5
First Quarter

Hourly Weather History & Observations

Time (CDT) Temp. Dew Point Humidity Pressure Visibility Wind Dir Wind Speed Gust Speed Precip Events Conditions
12:54 AM 66.9 °F 44.1 °F 44% 29.79 in 10.0 mi SSW 26.5 mph 38.0 mph 0.00 in Rain Light Rain
1:54 AM 60.1 °F 50.0 °F 69% 29.79 in 10.0 mi South 15.0 mph 26.5 mph 0.02 in Rain Light Rain
2:54 AM 60.1 °F 50.0 °F 69% 29.77 in 10.0 mi South 11.5 mph - 0.00 in   Partly Cloudy
3:54 AM 60.1 °F 48.9 °F 67% 29.74 in 10.0 mi South 18.4 mph - N/A   Mostly Cloudy
4:54 AM 60.1 °F 48.0 °F 64% 29.74 in 10.0 mi South 10.4 mph 18.4 mph N/A   Clear
5:54 AM 59.0 °F 48.0 °F 67% 29.76 in 10.0 mi SSW 16.1 mph - N/A   Clear
6:45 AM 57.9 °F 48.9 °F 72% 29.80 in 10.0 mi SW 12.7 mph - N/A   Partly Cloudy
6:54 AM 57.9 °F 48.9 °F 72% 29.79 in 10.0 mi WSW 10.4 mph - N/A   Partly Cloudy
7:54 AM 59.0 °F 48.9 °F 69% 29.81 in 10.0 mi West 4.6 mph - N/A   Clear
8:54 AM 59.0 °F 45.0 °F 60% 29.83 in 10.0 mi NW 10.4 mph - N/A   Clear
9:54 AM 60.8 °F 44.6 °F 55% 29.84 in 10.0 mi NW 6.9 mph - N/A   Partly Cloudy
10:54 AM 66.0 °F 45.0 °F 47% 29.83 in 10.0 mi NW 11.5 mph - N/A   Clear
11:54 AM 68.0 °F 42.8 °F 40% 29.84 in 10.0 mi NNW 12.7 mph - N/A   Partly Cloudy
12:54 PM 70.0 °F 42.1 °F 36% 29.83 in 10.0 mi NW 11.5 mph - N/A   Clear
1:54 PM 71.6 °F 39.2 °F 31% 29.84 in 10.0 mi North 8.1 mph - N/A   Clear
2:54 PM 73.0 °F 39.9 °F 30% 29.82 in 10.0 mi NNW 6.9 mph - N/A   Clear
3:54 PM 73.4 °F 39.2 °F 29% 29.82 in 10.0 mi North 8.1 mph - N/A   Clear
4:54 PM 73.9 °F 36.0 °F 25% 29.81 in 10.0 mi Calm Calm - N/A   Clear
5:54 PM 73.9 °F 37.0 °F 26% 29.81 in 10.0 mi Calm Calm - N/A   Clear
6:54 PM 73.9 °F 37.9 °F 27% 29.80 in 10.0 mi NNW 6.9 mph - N/A   Scattered Clouds
7:54 PM 69.1 °F 45.0 °F 42% 29.80 in 10.0 mi NNW 4.6 mph - N/A   Partly Cloudy
8:54 PM 69.1 °F 42.1 °F 38% 29.81 in 10.0 mi Calm Calm - N/A   Clear
9:54 PM 62.6 °F 44.6 °F 52% 29.81 in 10.0 mi ENE 4.6 mph - N/A   Clear
10:54 PM 60.1 °F 46.0 °F 60% 29.81 in 10.0 mi Calm Calm - N/A   Clear
11:54 PM 59.0 °F 46.0 °F 62% 29.82 in 10.0 mi Calm Calm - N/A   Clear